Cloud_Cover
100 83 90 71 78 100 100 50 5 5 22 50 100 100 100 100 100 100 100 100 96 100 100 100 100 71 82 86 5 1 5 5 65 9 5 17 10 5 1 59 45 0 5
60 70 63 45 95 100 100 100 5 5 5 98 100 100 100 100 100 100 100 100 100 100 100 100 61 97 100 29 12 0 0 1 24 14 6 5 2 0 0 13 84 5 9
44 44 82 42 83 42 51 74 5 6 10 89 100 100 100 100 100 100 100 100 100 100 100 78 48 42 19 15 20 0 0 0 0 5 5 5 5 5 3 3 7 36 100
31 18 18 5 5 5 5 8 5 31 100 100 100 100 100 100 100 100 100 95 100 100 100 100 64 16 23 100 62 0 0 0 5 5 5 6 5 42 3 0 1 100 100
9 5 5 5 5 5 5 5 6 47 100 98 100 100 100 100 100 100 62 88 100 100 100 100 30 92 94 5 0 0 0 3 5 0 29 5 5 0 0 0 5 47 5
5 5 5 5 5 5 5 18 20 99 92 100 100 100 100 100 100 99 100 100 100 100 100 87 47 45 5 0 0 0 0 5 0 5 58 10 0 0 0 2 0 5 0
100 28 6 5 5 5 14 34 26 45 90 100 100 100 100 100 100 92 100 12 74 100 100 53 85 5 0 0 0 0 2 0 0 5 1 0 0 0 3 1 9 7 35
74 32 46 62 5 30 99 52 88 85 69 84 66 98 99 100 78 97 80 100 100 98 7 88 72 3 0 0 0 0 1 4 3 5 0 0 0 5 5 5 96 53 100
5 5 5 6 5 6 22 100 100 99 100 100 100 94 100 100 100 99 100 100 86 54 92 77 0 0 0 0 0 0 0 0 5 4 0 0 0 0 5 5 6 90 93
5 5 26 97 6 87 100 95 89 100 100 100 100 100 100 100 98 96 100 100 96 9 58 4 0 0 0 0 0 0 0 0 4 0 0 0 4 0 6 77 98 100 100
6 5 33 69 6 58 100 100 100 90 95 100 100 100 100 100 99 100 98 70 86 48 5 2 0 0 0 0 0 0 0 0 1 0 0 0 0 1 9 100 100 88 94
99 52 71 35 100 100 99 100 96 100 89 90 56 51 78 100 100 63 6 53 68 17 0 0 0 0 0 1 0 0 0 0 0 0 1 3 0 3 5 5 22 96 61
100 98 18 100 94 100 100 100 100 99 58 58 20 5 12 96 77 35 15 5 5 0 0 0 0 0 0 0 0 0 4 5 2 0 5 5 5 5 0 5 5 5 14
100 99 19 29 98 39 53 33 79 100 97 80 59 29 83 96 67 7 28 27 1 2 0 0 0 0 0 0 0 0 2 5 5 3 5 7 72 5 5 5 5 61 79
93 41 79 35 20 53 50 63 49 70 58 57 44 45 96 28 31 10 4 5 7 34 2 0 0 0 0 0 0 0 0 5 4 5 8 68 57 5 5 5 41 62 10
4 84 94 80 43 27 75 100 100 100 100 100 48 14 49 17 8 8 5 34 12 6 0 0 0 0 0 0 0 0 2 5 5 5 28 37 5 5 4 5 7 5 5
5 17 92 85 26 90 100 100 100 100 100 90 37 7 5 4 5 5 4 5 5 4 0 0 0 0 0 0 0 0 0 5 63 5 48 6 5 7 5 5 74 17 5
1 36 52 15 5 17 50 75 74 93 100 97 79 60 42 5 0 2 5 13 1 0 0 0 0 0 0 0 0 0 0 5 5 5 65 19 57 46 16 86 91 94 5
0 0 0 0 9 14 24 59 35 38 80 100 100 94 41 69 40 12 52 2 0 0 0 0 0 0 0 0 0 0 0 3 16 67 89 100 100 100 89 77 90 100 100
32 2 8 35 37 39 35 44 55 80 94 45 99 100 22 37 60 26 9 5 0 0 0 0 0 0 0 0 0 0 0 0 4 31 99 100 100 100 100 100 89 98 100
79 16 25 73 39 98 100 83 100 100 100 100 100 100 100 100 37 5 2 0 0 0 0 0 0 0 0 0 0 0 0 4 20 100 100 100 100 100 100 100 100 78 68
100 100 100 100 100 97 100 100 100 100 100 100 79 90 100 100 100 91 24 0 0 0 0 0 0 0 0 0 0 0 84 97 100 100 100 100 100 100 100 100 100 100 100
68 100 100 100 100 100 100 100 100 100 100 100 100 100 100 100 100 67 51 19 0 0 0 0 0 0 0 0 0 19 100 100 100 100 100 100 100 100 100 100 87 99 100
5 100 100 100 100 100 100 100 100 100 96 98 100 100 100 100 100 100 99 5 0 0 0 0 0 0 0 0 3 46 100 100 100 100 100 100 100 100 100 100 100 100 100
5 100 100 100 100 100 100 100 100 100 97 99 55 100 100 100 100 100 71 30 5 49 6 0 0 3 59 60 5 33 58 100 100 100 100 100 100 100 100 88 100 100 100
1 100 100 100 100 100 100 100 100 88 98 90 82 98 100 100 100 100 100 72 77 99 96 52 87 100 100 99 100 100 100 100 100 100 93 100 100 100 100 100 100 100 100